Find Starlink 32840

NORAD ID: 63363 Int'l Des: 2025-063 Owner: SPXS Country: US Constellation: starlink operational
LEOCIRCULAR

現在のビュー

3D地球を読み込み中...

About Starlink 32840

Starlink 32840 (NORAD 63363) is a starlink constellation satellite (v2 mini) launched Mar 26, 2025 by SPXS of US. It operates in LEO, CIRCULAR orbit with a mass of 730.00 kg.

次回通過

Passes for default location (London). Set your location on the main map for personalized predictions.

高度履歴

Loading altitude history...

軌道要素

1 63363U 25063A 26263.30340055 .00015811 00000-0 47820-3 0 9996
2 63363 53.1567 222.2779 0001185 85.1172 274.9966 15.34393175 84624
Epoch: Sep 20, 2026 • Age: 17 hours

現在のステータス

高度 462.7 km
遠地点 / 近地点 N/A
速度 7.64 km/s
衛星直下点 8.25°N, 142.62°W
打ち上げ日 Mar 26, 2025
運用期間 1.4 years
タイプ internet

技術仕様

分類 Payload
質量 730.00 kg
乾燥質量 700.00 kg
長さ 0.30 m
スパン 29.00 m
形状 ? Box + pan
製造者 SPXS
バスタイプ Starlink V2M
フェーズステータス In Orbit
所有者/国 SPXS/US

Most Searched